Regional Weather Roundup
Issued by NWS State College, PA

Home | Current Version | Previous Version | Text Only | Print | Product List | Glossary On
Versions: 1 2 3 4 5 6 7 8 9 10 11 12 13 14 15 16 17 18 19 20 21 22 23 24 25 26 27 28 29 30 31 32 33 34 35 36 37 38 39 40 41 42 43 44 45 46 47 48 49 50
000
ASUS41 KCTP 030010
RWRCTP

REGIONAL WEATHER ROUNDUP
NATIONAL WEATHER SERVICE STATE COLLEGE PA
700 PM EST MON MAR 02 2015

Note: "fair" indicates few or no clouds below 12,000 feet with no
significant weather and/or obstructions to visibility.

* = STATION THAT DOES NOT REPORT PRECIPITATION /E.G. RAIN...SNOW...ETC/
    THUNDER OR FOG.

PAZ002>004-007>009-013>016-020>023-029>032-030100-
WESTERN PENNSYLVANIA

CITY           SKY/WX    TMP DP  RH WIND       PRES   REMARKS
ERIE           CLEAR     21  14  74 W6        30.45R WCI  13
MEADVILLE        N/A     19   7  59 CALM      30.39R
FRANKLIN*      CLEAR     19   7  58 NW5       30.39R WCI  13
NEW CASTLE     FAIR      24   8  50 N5        30.42R
BEAVER COUNTY  CLEAR     23  14  68 CALM      30.39
BUTLER*        CLEAR     23  12  63 W3        30.40S
PITTSBURGH INT PTCLDY    24  14  65 W6        30.40R
PITTSBURGH     CLEAR     25  10  53 NW5       30.39R
INDIANA*       CLOUDY    23  16  74 W5        30.40S
LATROBE        MOCLDY    27  16  63 NW7       30.41R
WASHINGTON CO* CLEAR     27  12  54 CALM      30.42R
$$

PAZ004>006-010>012-017>019-024>028-033>037-041-042-045-046-049>053-030100-
CENTRAL PENNSYLVANIA

CITY           SKY/WX    TMP DP  RH WIND       PRES   REMARKS
BRADFORD       CLEAR     17   6  62 NW14      30.30R WCI   3
DUBOIS         CLEAR     22   9  57 NW7       30.32R WCI  13
CLEARFIELD     CLEAR     24   9  52 W6        30.34R
JOHNSTOWN      CLEAR     20  11  68 NW14      30.28S WCI   7
ALTOONA        CLEAR     24  12  60 NW9G20    30.34R WCI  14
STATE COLLEGE  CLEAR     27  10  50 W9G20     30.34R
WILLIAMSPORT   CLEAR     30   6  36 NW8       30.33R
SELINSGROVE    CLEAR     30  11  45 W5        30.34R
FT INDIANTOWN  CLEAR     31  11  43 W10       30.32R
CAPITAL CITY   CLEAR     31  13  47 W13       30.36R
HARRISBURG     PTCLDY    30  13  49 W7        30.35R
YORK           CLEAR     30  14  51 NW8       30.35R
$$

PAZ038>040-043-044-047-048-054-055-060>062-067>071-030100-
EASTERN PENNSYLVANIA

CITY           SKY/WX    TMP DP  RH WIND       PRES   REMARKS
SCRANTON       CLEAR     28   7  41 NW8G22    30.27R
MOUNT POCONO   CLEAR     23   6  48 NW20G30   30.16R WCI   8
ALLENTOWN      CLEAR     33   8  35 NW10      30.28R
QUAKERTOWN*    CLEAR     32  10  40 NW7       30.28R
READING        CLEAR     32  11  41 W10       30.31R
LANCASTER      CLEAR     30  14  51 NW16      30.32R
COATESVILLE    CLEAR     32  19  59 NW14      30.31R
POTTSTOWN      CLEAR     31  14  49 NW6       30.31R
BLUE BELL      CLEAR     34  18  51 W5        30.29R
DOYLESTOWN     CLEAR     32  13  45 W7        30.27R
WILLOW GROVE   NOT AVBL
NORTH PHILA    CLEAR     36  11  35 W12       30.31R
PHILADELPHIA   PTCLDY    36  13  38 W13       30.33R
$$


USA.gov is the U.S. government's official web portal to all federal, state and local government web resources and services.